Location: San Antonio
(29.4240°N, 98.4930°W)
Time: 10:49:25
(UTC-05:00)

ACS3 Solar Sail - Pass Details

Date: 27 June 2024
Orbit: 992 x 1023 km, 97.4° (Epoch: 12 July)

Event Time Altitude Azimuth Distance (km) Brightness Sun altitude
Exits shadow 22:40:19 40° 112° (ESE) 1,431 5.2 -22.3°
Maximum altitude 22:41:49 47° 74° (ENE) 1,288 5.2 -22.5°
Drops below altitude 10° 22:47:43 10° 2° (N) 2,759 7.7 -23.4°
Sets 22:50:17 0° 357° (N) 3,710 8.6 -23.8°
